Regional Weather Roundup
Issued by NWS

Home | Current Version | Previous Version | Text Only | Print | Product List | Glossary Off
Versions: 1 2 3 4 5 6 7 8 9 10 11 12 13 14 15 16 17 18 19 20 21 22 23 24 25 26 27 28 29 30 31 32 33 34 35 36 37 38 39 40 41 42 43 44 45 46 47 48 49 50

000
ASUS43 KMPX 292110
RWRMN
WEATHER ROUNDUP FOR MINNESOTA
NATIONAL WEATHER SERVICE TWIN CITIES/CHANHASSEN MN
400 PM CDT WED JUL 29 2015


NOTE: "FAIR" INDICATES FEW OR NO CLOUDS BELOW 12,000 FEET WITH NO
SIGNIFICANT WEATHER AND/OR OBSTRUCTIONS TO VISIBILITY. N/A MEANS
CURRENT SKY AND/OR WEATHER CONDITIONS ARE NOT AVAILABLE.

MNZ060>063-068>070-292200-
   Twin Cities Metro

CITY           SKY/WX    TMP DP  RH WIND       PRES   REMARKS
TWIN CITIES    MOSUNNY   82  54  37 W26G36    29.93F
ST PAUL        SUNNY     81  55  40 W28G39    29.93F
CRYSTAL        PTSUNNY   83  55  38 W23G32    29.92F
BLAINE         MOSUNNY   82  55  39 W21G33    29.92F
LAKEVILLE      SUNNY     79  54  41 W17G28    29.96F
EDEN PRAIRIE   MOSUNNY   82  55  39 W21G37    29.94F
SOUTH ST PAUL  SUNNY     82  51  35 W20G29    29.93F
LAKE ELMO      FAIR      79  57  47 W21G33    29.94S
$$
MNZ001>005-007-008-013>017-022>024-027-028-292200-
   Northwest Minnesota

CITY           SKY/WX    TMP DP  RH WIND       PRES   REMARKS
BEMIDJI        PTSUNNY   77  54  44 W28G38    29.82R
HALLOCK        MOSUNNY   79  48  34 NW22G36   29.77R
ROSEAU         MOSUNNY   75  59  57 W16G32    29.73R
WARROAD        MOSUNNY   75  61  60 W18G28    29.71R
THIEF RVR FALL PTSUNNY   77  54  44 W21G35    29.81R
CROOKSTON      SUNNY     81  54  39 W23G36    29.83R
FOSSTON        PTSUNNY   75  52  43 W28G33    29.85R
DETROIT LAKES  SUNNY     77  48  36 W23G35    29.92R
MOORHEAD       MOSUNNY   79  54  41 W20G31    29.91R
PARK RAPIDS    PTSUNNY   79  52  38 W25G44    29.87R
MAHNOMEN       FAIR      76  52  42 W22G37    29.87R
$$
MNZ006-009>011-018-025>026-292200-
   North Central Minnesota

CITY           SKY/WX    TMP DP  RH WIND       PRES   REMARKS
BAUDETTE       CLOUDY    73  55  53 W22G31    29.71R
FLAG ISLAND    CLOUDY    72  55  56 W21G30    29.65R
INTL FALLS     CLOUDY    67  57  70 W12G18    29.70R
WASKISH        PTSUNNY   73  57  56 W25G35    29.75R
BIG FORK       MOSUNNY   75  57  53 W12       29.76S
LONGVILLE      MOSUNNY   75  54  46 W22G32    29.84R
GRAND RAPIDS   PTSUNNY   75  52  43 W18G30    29.81R
CRANE LAKE     CLOUDY    63  57  82 W6G16     29.72R
ORR            CLOUDY    64  55  72 W5        29.73R
COOK           CLOUDY    66  57  72 W10       29.76S
WALKER         FAIR      76  54  46 W22G35    29.83R
$$
MNZ012-019>021-037-292200-
   Northeast Minnesota

CITY           SKY/WX    TMP DP  RH WIND       PRES   REMARKS
DULUTH         PTSUNNY   73  56  54 W12G25    29.80R
ELY            CLOUDY    66  55  68 W21G32    29.74S
HIBBING        LGT RAIN  72  56  57 W9G17     29.78R
EVELETH        LGT RAIN  68  54  60 W14G31    29.79R
DULUTH HARBOR  CLOUDY    77  61  57 SW13G21   29.78S
TWO HARBORS    CLOUDY    73  61  64 W13G22    29.76R
SILVER BAY     CLOUDY    72  55  56 SW9       29.74R
GRAND MARAIS     N/A     57  51  80 SW17G26   29.69R
G MARAIS ARPRT   N/A     66  54  63 SW16G25   29.72R
$$
MNZ029>031-032-039>041-046>048-054>057-064-292200-
   West Central Minnesota

CITY           SKY/WX    TMP DP  RH WIND       PRES   REMARKS
FERGUS FALLS   SUNNY     79  54  41 W25G35    29.92R
WHEATON        SUNNY     79  52  38 W20G32    29.97S
MORRIS         MOSUNNY   81  55  41 W23G30    29.96S
ALEXANDRIA     MOSUNNY   79  52  38 W23G40    29.96S
ELBOW LAKE     FAIR      78  56  45 W18G24    29.95S
WADENA         MOSUNNY   79  52  38 W24G37    29.90R
GLENWOOD       SUNNY     81  54  39 W23G35    29.97R
APPLETON       SUNNY     82  50  32 W20G28    29.98S
BENSON         MOSUNNY   82  48  30 NW22G28   29.98R
ORTONVILLE     SUNNY     81  48  32 W20G26    29.99S
MADISON        SUNNY     82  46  28 W22G31    30.01S
WILLMAR        FAIR      81  55  41 W20G32    29.99S
$$
MNZ033>034-036-042>043-049>051-058-059-292200-
   Central Minnesota

CITY           SKY/WX    TMP DP  RH WIND       PRES   REMARKS
ST CLOUD       PTSUNNY   80  53  39 W26G38    29.92S
SAUK CENTRE    FAIR      77  56  48 W16G30    29.95R
PAYNESVILLE    PTSUNNY   77  54  44 SW20G33   29.97S
AITKIN         MOSUNNY   79  55  44 W8G16     29.84S
PINE RIVER     MOSUNNY   77  55  47 W17G26    29.89R
BRAINERD       PTSUNNY   77  53  43 W16G26    29.87S
STAPLES        PTSUNNY   77  52  41 W20G32    29.89S
LONG PRAIRIE   FAIR      79  52  38 W24G33    29.94S
LITTLE FALLS   MOSUNNY   79  46  31 W23G35    29.91S
LITCHFIELD     MOSUNNY   81  55  41 W18G26    29.98R
BUFFALO        MOSUNNY   80  55  41 W17G24    29.96S
MAPLE LAKE     PTSUNNY   79  57  47 W13G25    29.95S
$$
MNZ037-044-045-052-053-292200-
   East Central Minnesota

CITY           SKY/WX    TMP DP  RH WIND       PRES   REMARKS
PRINCETON      MOSUNNY   81  55  41 W18G26    29.92S
MORA           SUNNY     77  54  44 W21G28    29.90R
CAMBRIDGE      MOSUNNY   82  59  44 W20G30    29.89S
RUSH CITY      MOSUNNY   79  55  43 W18G25    29.89F
MOOSE LAKE     PTSUNNY   77  52  41 W21G30    29.82S
HINCKLEY       MOCLDY    79  57  47 W15G25    29.87S
CLOQUET        CLOUDY    75  48  38 SW17G25   29.81S
MCGREGOR       MOSUNNY   79  52  38 W18G35    29.84S
$$
MNZ071>073-080-081-089-090-097-098-292200-
   Southwest Minnesota

CITY           SKY/WX    TMP DP  RH WIND       PRES   REMARKS
MONTEVIDEO     SUNNY     82  54  36 NW12G24   30.02S
GRANITE FALLS  SUNNY     81  53  37 W16G25    30.02F
CANBY          SUNNY     82  48  29 W30G38    30.04S
MARSHALL       SUNNY     82  48  30 W28G39    30.04F
REDWOOD FALLS  SUNNY     84  53  34 W20G35    30.01S
OLIVIA         SUNNY     77  50  38 W22G30    29.99S
PIPESTONE      SUNNY     81  48  32 NW18G31   30.09S
WINDOM         SUNNY     82  52  34 W22G31    30.06S
WORTHINGTON    SUNNY     81  55  41 W22       30.09S
JACKSON        SUNNY     81  55  41 W24G30    30.08S
TRACY          SUNNY     81  52  36 W14G31    30.05S
SLAYTON        SUNNY     80  49  34 W25G33    30.08S
$$
MNZ065>067-074>077-082>085-091>093-292200-
   South Central Minnesota

CITY           SKY/WX    TMP DP  RH WIND       PRES   REMARKS
MANKATO        MOSUNNY   81  54  39 W16G36    30.01R
NEW ULM        SUNNY     81  50  34 W25G37    30.01S
ST JAMES       SUNNY     84  54  34 W24       30.04S
FAIRMONT       SUNNY     82  52  34 W20G30    30.05S
GLENCOE        SUNNY     81  55  40 W15G31    29.97S
FARIBAULT      SUNNY     81  55  41 W17G32    30.00S
OWATONNA       SUNNY     81  54  39 W21G29    30.01S
WASECA         MOSUNNY   77  54  44 W23G32    30.03S
ALBERT LEA     SUNNY     81  54  39 W17G23    30.03S
$$
MNZ078>079-086>088-094>096-292200-
   Southeast Minnesota

CITY           SKY/WX    TMP DP  RH WIND       PRES   REMARKS
ROCHESTER      SUNNY     78  55  44 W24G33    30.01S
RED WING       SUNNY     82  50  32 W23G31    29.93F
STANTON        SUNNY     81  54  39 W17G30    29.97S
DODGE CENTER   SUNNY     79  52  38 W20G36    30.01S
WINONA         SUNNY     81  52  36 NW18G29   29.96F
AUSTIN         SUNNY     81  50  34 W21G31    30.02S
PRESTON        SUNNY     79  52  39 W21G32    30.03S
$$
ABBREVIATIONS USED IN REMARKS
   TC - TEMPERATURES IN CELSIUS
  WCI - WIND CHILL INDEX
   HX - HEAT INDEX
  VSB - VISIBILITY
$$



USA.gov is the U.S. government's official web portal to all federal, state and local government web resources and services.